Location: Canyon City
(32.5951°N, 116.5278°W)
Time: 02:05:35
(UTC+00:00)

COSMOS 2455 - Pass Details

Date: 08 September 2024
Orbit: 898 x 910 km, 67.1° (Epoch: 10 October)

Event Time Altitude Azimuth Distance (km) Brightness Sun altitude
Exits shadow 12:37:46 13° 268° (W) 2,368 4.4 -10.8°
Maximum altitude 12:41:09 20° 307° (NW) 1,965 4.3 -10.1°
Drops below altitude 10° 12:45:29 10° 354° (N) 2,597 5.3 -9.2°
Sets 12:48:44 0° 11° (N) 3,543 6.3 -8.5°
